Home   Weather   Palma   Past weeks
Flag for Spain

Past Weather in Palma, Majorca, Spain — Yesterday and Last 2 Weeks

Now
70 °F

Passing clouds.


Feels Like: 70 °F
Forecast: 73 / 58 °F
Wind: 1 mph from North

Location: Palma De Mallorca / Son San Juan

Current Time: May 26, 2019 at 8:15:29 pm

Latest Report: May 26, 2019 at 7:30 pm


Visibility: N/A

Pressure: 29.95 "Hg

Humidity: 57%

Dew Point: 54 °F

Location of PalmaLocation

Past Weather in Palma — Graph

°F

Palma Temperature Yesterday

Maximum temperature yesterday: 70 °F (at 1:30 pm)
Minimum temperature yesterday: 57 °F (at 5:00 am)
Average temperature yesterday: 64 °F

High & Low Weather Summary for the Past Weeks

 TemperatureHumidityPressure
High77 °F (May 14, 3:30 pm)94% (May 23, 4:30 am)30.24 "Hg (May 23, 4:30 am)
Low46 °F (May 14, 6:30 am)23% (May 24, 11:30 am)29.53 "Hg (May 17, 9:30 am)
Average64 °F64%29.96 "Hg
* Reported May 11 7:00 pm — May 26 7:00 pm, Palma. Weather by CustomWeather, © 2019

Note: Actual official high and low records may vary slightly from our data, if they occured in-between our weather recording intervals... More about our weather records

Advertising

Palma Weather History for the Previous 24 Hours

Scroll right to see more
 ConditionsComfort  
Time TempWeatherWind HumidityBarometerVisibility
7:00 pm
Sun, May 26
72 °FScattered clouds.3 mph50%29.95 "HgN/A
6:30 pm70 °FPassing clouds.7 mph57%29.95 "HgN/A
6:00 pm70 °FPassing clouds.12 mph64%29.95 "HgN/A
5:30 pm73 °FPassing clouds.8 mph44%29.95 "HgN/A
5:00 pm73 °FPassing clouds.5 mph47%29.95 "HgN/A
4:30 pm70 °FPassing clouds.1 mph57%29.98 "HgN/A
4:00 pm70 °FPassing clouds.7 mph57%29.98 "HgN/A
3:30 pm70 °FPassing clouds.10 mph60%29.98 "HgN/A
3:00 pm72 °FPassing clouds.13 mph53%29.98 "HgN/A
2:30 pm72 °FPassing clouds.13 mph57%29.98 "HgN/A
2:00 pm72 °FPassing clouds.8 mph57%29.98 "HgN/A
1:30 pm72 °FPassing clouds.8 mph57%29.98 "HgN/A
1:00 pm72 °FPassing clouds.8 mph57%29.98 "HgN/A
12:30 pm72 °FPassing clouds.8 mph61%29.98 "HgN/A
12:00 pm72 °FPassing clouds.12 mph65%29.98 "HgN/A
11:30 am73 °FPassing clouds.6 mph57%29.98 "HgN/A
11:00 am70 °FPassing clouds.12 mph60%29.98 "HgN/A
10:30 am66 °FPassing clouds.14 mph73%29.98 "HgN/A
10:00 am66 °FPassing clouds.15 mph73%29.98 "HgN/A
9:30 am66 °FPassing clouds.10 mph68%29.98 "HgN/A
9:00 am64 °FPassing clouds.12 mph73%29.98 "HgN/A
8:30 am66 °FPassing clouds.13 mph68%29.98 "HgN/A
8:00 am66 °FPassing clouds.7 mph68%29.98 "HgN/A
7:30 am66 °FPassing clouds.6 mph68%29.98 "HgN/A
7:00 am64 °FPassing clouds.2 mph73%29.98 "HgN/A
6:30 am64 °FPassing clouds.6 mph73%29.98 "HgN/A
6:00 am64 °FPassing clouds.9 mph68%29.98 "HgN/A
5:30 am64 °FPassing clouds.9 mph68%29.98 "HgN/A
5:00 am64 °FPassing clouds.6 mph68%29.98 "HgN/A
4:30 am64 °FPassing clouds.8 mph73%29.98 "HgN/A
4:00 am63 °FPassing clouds.1 mph83%29.98 "HgN/A
3:30 am64 °FPassing clouds.1 mph78%29.98 "HgN/A
3:00 am61 °FPassing clouds.3 mph83%29.98 "HgN/A
2:30 am63 °FPassing clouds.1 mph77%30.01 "HgN/A
2:00 am63 °FPassing clouds.2 mph83%30.01 "HgN/A
1:30 am64 °FPassing clouds.3 mph78%30.01 "HgN/A
1:00 am64 °FPassing clouds.No wind73%30.01 "HgN/A
12:30 am64 °FPassing clouds.1 mph73%30.01 "HgN/A
12:00 am64 °FPassing clouds.1 mph73%30.01 "HgN/A
11:30 pm
Sat, May 25
64 °FPassing clouds.3 mph73%30.01 "HgN/A
11:00 pm66 °FPassing clouds.2 mph68%30.04 "HgN/A
10:30 pm64 °FPassing clouds.3 mph73%30.01 "HgN/A
10:00 pm66 °FPassing clouds.5 mph68%30.01 "HgN/A
9:30 pm66 °FPassing clouds.7 mph68%30.01 "HgN/A
9:00 pm66 °FPassing clouds.9 mph68%29.98 "HgN/A
8:30 pm66 °FPassing clouds.10 mph68%29.98 "HgN/A
8:00 pm68 °FPassing clouds.9 mph64%29.98 "HgN/A
Weather by CustomWeather, © 2019

See weather overview